Location: Gipe Farm
(40.9466°N, 95.5370°W)
Time: 07:41:30
(UTC-06:00)

Daily predictions for brighter satellites

Satellite Brightness Start Highest point End
(mag) Time Altitude Azimuth Time Altitude Azimuth Time Altitude Azimuth
Nadezhda 1 Rocket 4.4 17:41:01 10° SSW 17:47:13 71° W 17:53:33 10° N
CZ-4 R/B 1.6 17:45:30 10° SSE 17:49:37 54° ENE 17:53:46 10° N
Cosmos 1300 3.7 17:47:24 10° NNE 17:50:37 25° ENE 17:53:49 10° SE
SL-14 R/B 4.2 17:47:52 10° SSE 17:51:17 28° E 17:54:41 10° NNE
Geosat 4.1 17:47:09 10° NNE 17:52:13 90° ESE 17:57:14 10° SSW
CSL-04 Rocket 3.9 17:48:05 10° SSE 17:53:39 86° WSW 17:59:13 10° NNW
BREEZE-M DEB (TANK) 2.7 17:47:47 10° SW 17:55:00 66° SSE 17:57:46 10° ENE
Cosmos 1484 Rocket 3.2 17:52:44 10° S 17:56:32 66° W 18:00:17 10° NNW
Cosmos 968 Rocket 3.7 17:52:27 10° N 17:57:25 45° ENE 18:02:18 10° SE
ATLAS 2AS CENTAUR R/B 3.0 17:50:45 10° NW 17:58:45 86° NE 18:06:04 10° SE
Cosmos 1943 Rocket 2.2 17:53:51 10° NNW 17:59:24 59° ENE 18:04:51 10° SE
ERS-2 3.7 17:59:15 10° ESE 18:01:38 16° ENE 18:04:00 10° NNE
CZ-2C R/B 3.8 17:59:47 10° NNE 18:04:29 63° E 18:09:04 10° S
Okean 3 Rocket 3.8 18:00:42 10° SSE 18:05:04 50° E 18:09:27 10° NNE
NOSS 2-1 (E) 4.1 18:02:04 10° SW 18:05:38 47° NW 18:09:41 10° NNE
Cosmos 2341 Rocket 4.0 17:59:29 10° N 18:05:48 82° E 18:12:06 10° S
Cosmos 44 4.2 18:05:54 10° SSE 18:09:25 25° ESE 18:12:38 12° ENE
SKYMED 2 3.7 18:09:53 10° NNE 18:14:08 52° E 18:18:22 10° S
Cosmos 1315 Rocket 3.4 18:11:12 10° SSE 18:14:46 34° E 18:18:21 10° NNE
SMAP 4.0 18:12:01 10° S 18:16:34 53° W 18:21:08 10° NNW
Cosmos 1346 Rocket 4.1 18:15:25 10° NNE 18:18:18 19° ENE 18:21:09 10° ESE
Meteor 1-28 Rocket 4.4 18:15:56 10° N 18:19:35 44° WNW 18:23:11 10° SW
NOSS 3-4 (A) 4.2 18:14:35 10° NNW 18:21:11 42° NE 18:28:12 10° ESE
NOSS 3-4 (C) 4.2 18:14:42 10° NNW 18:21:16 42° NE 18:28:17 10° ESE
FENGYUN 3A 3.7 18:16:26 10° SSE 18:21:37 55° ENE 18:26:51 10° N
YAOGAN 1 2.5 18:17:54 10° SSE 18:22:13 88° ENE 18:26:34 10° NNW
SL-24 R/B - RUBIN 2 4.3 18:18:09 10° NNW 18:22:17 32° NE 18:26:12 10° ESE
OAO 3 Rocket 4.1 18:18:27 10° WSW 18:22:49 40° S 18:27:01 11° ESE
Meteor 2-16 Rocket 4.5 18:22:25 10° N 18:28:33 89° W 18:34:41 10° S
Cosmos 2181 Rocket 4.2 18:23:22 10° S 18:29:48 79° W 18:36:17 10° N
Tiangong 1 0.7 18:28:54 10° WNW 18:31:22 53° N 18:32:11 33° ENE
COSMOS 2406 4.3 18:26:55 10° SSE 18:31:22 24° ESE 18:33:47 18° ENE
H-2A R/B 3.5 18:30:06 10° SE 18:33:23 28° ENE 18:36:43 10° N
Cosmos 1726 3.3 18:30:06 10° NNW 18:33:38 45° W 18:37:07 10° SSW
Cosmos 44 Rocket 3.8 18:30:32 10° S 18:34:50 38° ESE 18:37:31 20° ENE
Cosmos 1328 3.7 18:39:47 10° S 18:43:47 78° E 18:47:50 10° N
Cosmos 2221 3.8 18:39:57 10° NNW 18:44:06 43° W 18:48:15 10° SSW
Cosmos 1400 Rocket 4.1 18:41:17 10° SSW 18:45:08 43° WNW 18:49:04 10° N
SL-8 Rocket 4.3 18:44:33 10° NNW 18:50:42 70° W 18:56:52 10° S
Meteor 2-2 Rocket 4.1 18:47:17 10° N 18:53:04 79° E 18:58:43 10° SSE
Cosmos 2218 Rocket 4.1 18:47:39 10° N 18:53:50 79° W 18:59:57 10° S
Cosmos 1515 Rocket 4.1 18:51:56 10° N 19:00:52 - SSE 18:55:37 34° ENE
Cosmos 1408 Rocket 3.4 18:52:21 10° S 18:56:39 86° E 19:00:58 10° N
SPOT 3 Rocket 3.6 18:54:07 10° SSE 18:59:16 82° WSW 19:04:27 10° NNW
EO 1 Del DPAF 3.4 18:55:48 10° N 18:59:38 73° WNW 19:03:26 10° SSW
ALOS 2.9 18:56:48 10° S 19:01:24 58° W 19:06:00 10° NNW
COSMO-SKYMED 1 3.7 18:58:01 10° N 19:02:09 44° WNW 19:06:16 10° SW
Cosmos 2058 3.1 18:59:14 10° SSE 19:03:11 45° E 19:03:31 44° ENE
Cosmos 1500 Rocket 4.0 19:04:42 10° SSE 19:08:22 40° ESE 19:08:22 40° ESE
Cosmos 2228 Rocket 3.2 19:04:32 10° N 19:09:02 53° E 19:13:30 10° SSE
USA 81 4.1 19:06:08 10° SSE 19:11:14 52° E 19:15:12 17° NNE
Cosmos 2151 3.0 19:07:20 10° S 19:11:28 53° E 19:11:34 53° E
Cosmos 1703 3.1 19:08:06 10° S 19:12:03 75° E 19:13:13 44° NNE
Cosmos 1777 Rocket 3.9 19:08:31 10° NNW 19:13:47 90° WSW 19:19:02 10° SSE
Cosmos 1626 2.9 19:14:48 10° SSW 19:18:25 52° W 19:21:05 17° N
Cosmos 1743 Rocket 3.4 19:18:25 10° S 19:22:47 80° E 19:23:41 55° NNE
Meteor 2-15 4.4 19:18:58 10° S 19:24:56 59° E 19:28:40 24° NNE
GEOS 3 Rocket 3.5 19:23:24 40° SE 19:25:21 72° NE 19:30:44 10° NNW
Cosmos 1241 Rocket 4.4 19:19:16 10° NNW 19:25:27 62° NE 19:27:25 42° ESE
Cosmos 1328 Rocket 3.8 19:25:32 10° NNW 19:29:53 66° W 19:34:11 10° S
ERS-2 3.9 19:31:41 10° SSW 19:35:01 32° W 19:38:22 10° NNW
Cosmos 2098 Rocket 4.1 19:32:20 10° NNW 19:37:27 66° W 19:43:49 10° S
Cosmos 1656 Rocket 4.4 19:32:32 10° NNW 19:37:50 51° WSW 19:43:09 10° S
Cosmos 1821 Rocket 3.8 19:32:40 10° N 19:38:50 71° E 19:45:02 10° SSE
Cosmos 1535 Rocket 4.3 19:33:09 10° N 19:39:14 61° E 19:39:23 61° E
Cosmos 371 Rocket 3.6 19:38:03 10° SSW 19:41:51 55° S 19:41:51 55° S
Nadezhda 3 Rocket 4.2 19:42:38 10° SSW 19:48:55 69° W 19:55:18 10° N
Cosmos 44 4.4 19:46:32 10° WSW 19:50:27 33° NW 19:51:06 31° NNW
Meteor 2-15 Rocket 4.3 19:44:48 10° S 19:50:55 79° E 19:51:43 67° NNE
COSMOS 2406 4.0 20:09:46 10° SW 20:15:18 49° WNW 20:15:55 47° NW
